Regional Weather Roundup
Issued by NWS

Home | Current Version | Previous Version | Graphics & Text | Print | Product List | Glossary On
Versions: 1 2 3 4 5 6 7 8 9 10 11 12 13 14 15 16 17 18 19 20 21 22 23 24 25 26 27 28 29 30 31 32 33 34 35 36 37 38 39 40 41 42 43 44 45 46 47 48 49 50
000
ASUS43 KLOT 270910
RWRIL

ILLINOIS REGIONAL WEATHER ROUNDUP
NATIONAL WEATHER SERVICE CHICAGO/ROMEOVILLE IL
300 AM CST FRI FEB 27 2015

NOTE: "FAIR" INDICATES FEW OR NO CLOUDS BELOW 12,000 FEET WITH NO
SIGNIFICANT WEATHER AND/OR OBSTRUCTIONS TO VISIBILITY.

* THESE STATIONS ARE NOT UNDER NWS QUALITY CONTROL. THEY ALSO MAY NOT
  REPORT WEATHER SUCH AS PRECIPITATION OR FOG.

ILZ001-002-007-009-015-016-024-271000-
NORTHWEST ILLINOIS

CITY           SKY/WX    TMP DP  RH WIND       PRES   REMARKS
MOLINE         FAIR      -8 -14  74 W7        30.54S WCI -23
STERLING*      CLEAR    -17 -24  70 CALM      30.51R
SAVANNA*       CLEAR    -14 -20  74 CALM      30.52S
$$

ILZ003-004-008-010-011-017-018-271000-
NORTH CENTRAL ILLINOIS

CITY           SKY/WX    TMP DP  RH WIND       PRES   REMARKS
ROCKFORD       CLEAR    -11 -16  78 CALM      30.50R
FREEPORT*      CLEAR    -11 -16  79 CALM      30.50S
ROCHELLE*      CLEAR    -17 -21  81 S3        30.49S
DE KALB*       CLEAR     -8 -13  78 NW8       30.47R WCI -24
PERU*          CLEAR     -6 -11  77 W6        30.51S WCI -18
$$

ILZ005-006-012>014-019>023-271000-
NORTHEAST ILLINOIS

CITY           SKY/WX    TMP DP  RH WIND       PRES   REMARKS
CHICAGO-OHARE  CLEAR      0  -8  69 NW10      30.45R WCI -16
CHICAGO-MIDWAY CLEAR      5  -4  66 NW6       30.47R WCI  -6
AURORA         CLEAR    -11 -19  68 NW6       30.48R WCI -25
LANSING*       CLEAR      2  -6  71 W5        30.46R WCI  -8
JOLIET*        CLEAR     -2  -9  74 CALM      30.49R
WAUKEGAN       CLEAR     -2  -8  76 W7        30.45R WCI -15
DUPAGE AIRPORT CLEAR     -5 -11  75 NW5       30.46R WCI -16
KANKAKEE*      CLEAR     -6 -10  81 W7        30.48R WCI -20
WHEELING       CLEAR      2  -8  63 NW6       30.48R WCI  -9
MORRIS*        CLEAR     -8 -13  80 NW10      30.48S WCI -27
ROMEOVILLE*    CLEAR     -3  -9  78 NW7       30.47R WCI -17
NORTHERLY ISL    N/A     10  -2  58 W7          N/A  WCI  -1
$$

LMZ740>746-271000-
SOUTHERN LAKE MICHIGAN

STATION/POSITION SKY/WX   TEMP    WIND        PRES    VSBY  WAVE
                          AIR SEA DIR/SP/G                  HT/PER
                          (F)     (DEG/KT/KT) (MB)    (MI)  (FT/S)
WAUKEGAN HARBOR             3     300/  8/ 12   N/A
HARRISON CRIB               9     300/ 14/ 17   N/A
BURNHAM HARBOR             10     270/  9/ 15   N/A
CALUMET HARBOR              8     280/  6/  9 1029.9R
MICHIGAN CITY               9      60/  1/  1   N/A
$$

ILZ025>027-034>036-040-047-049-050-058-095>099-271000-
WEST-CENTRAL ILLINOIS

CITY           SKY/WX    TMP DP  RH WIND       PRES   REMARKS
QUINCY         CLEAR     -4 -10  75 NW8       30.56F WCI -19
GALESBURG*     PTCLDY   -10 -14  84 W7        30.53S WCI -26
MACOMB*        CLEAR     -9 -13  83 W12       30.57S WCI -28
JACKSONVILLE*  CLEAR     -7 -13  77 NW6       30.56S WCI -20
PITTSFIELD*    CLEAR     -1  -8  72 W7        30.57S WCI -14
$$

ILZ028>032-037-038-041>044-048-051>054-059>061-271000-
CENTRAL ILLINOIS

CITY           SKY/WX    TMP DP  RH WIND       PRES   REMARKS
PONTIAC        CLEAR     -4  -8  81 W6        30.51R WCI -16
BLOOMINGTON    CLEAR      0  -6  75 NW9       30.49R WCI -15
DECATUR        CLEAR      2  -5  72 NW13      30.51S WCI -15
PEORIA         CLEAR     -2  -9  72 CALM      30.54R
LACON*         CLEAR    -10 -15  77 CALM      30.53S
LINCOLN*       PTCLDY     1  -5  74 W6        30.57R WCI -10
SPRINGFIELD    CLEAR     -1  -9  68 NW8       30.55R WCI -15
TAYLORVILLE    CLEAR      0  -6  78 W3        30.54S
$$

ILZ033-039-045-046-055>057-062-063-271000-
EAST-CENTRAL ILLINOIS

CITY           SKY/WX    TMP DP  RH WIND       PRES   REMARKS
CHAMPAIGN      MOCLDY     1  -4  79 W9        30.48R WCI -14
DANVILLE*      MOCLDY     3  -4  72 NW8       30.45R WCI -11
RANTOUL*       FAIR       1  -4  77 NW10      30.48S WCI -14
MATTOON        CLOUDY     8   2  76 NW14      30.49R WCI  -8
PARIS*         CLOUDY     8   3  80 W3        30.50R
$$

ILZ079-100>102-271000-
SOUTHWEST ILLINOIS

CITY           SKY/WX    TMP DP  RH WIND       PRES   REMARKS
ALTON          CLEAR      3  -6  64 NW5       30.56F WCI  -6
BELLEVILLE     PTCLDY     6  -2  69 NW9       30.56S WCI  -8
CAHOKIA*       CLEAR      7  -2  66 NW10      30.58S WCI  -8
SPARTA*        CLOUDY     8   0  70 NW8       30.56S WCI  -4
$$

ILZ064>066-069>071-074>076-080>082-084>086-088>090-092>094-271000-
SOUTH-CENTRAL ILLINOIS

CITY           SKY/WX    TMP DP  RH WIND       PRES   REMARKS
CARBONDALE     FLURRIES  11   2  67 NW9       30.54R WCI  -2
CAIRO*         CLEAR     18   9  68 N7        30.53R WCI   8
EFFINGHAM*     CLOUDY     9   1  71 NW9       30.53S WCI  -5
MARION         CLOUDY    14   7  73 NW6       30.53S WCI   5
MT. VERNON     MOCLDY    10   1  67 CALM      30.52S
CENTRALIA*     CLOUDY     8   0  70 NW10      30.53S WCI  -6
SALEM*         MOCLDY     9   1  69 NW9       30.53S WCI  -4
METROPOLIS*    CLEAR     16  11  81 N7        30.50R WCI   6
$$

ILZ067-068-072-073-078-083-087-091-271000-
SOUTHEAST ILLINOIS

CITY           SKY/WX    TMP DP  RH WIND       PRES   REMARKS
LAWRENCEVILLE  MOCLDY    10   2  69 NW9       30.51R WCI  -3
FLORA*         FLURRIES  11   7  83 NW7       30.52S WCI   0
FAIRFIELD*     FLURRIES  12   8  82 CALM      30.51S
HARRISBURG*    FLURRIES  15  10  81 NW9       30.53S WCI   3
ROBINSON*      CLOUDY    10   3  75 NW7       30.52S WCI  -2
CARMI*         FLURRIES  17  15  89 N8        30.51R WCI   7
$$

ABBREVIATIONS USED IN REMARKS
   TC - TEMPERATURE IN CELSIUS
  WCI - WIND CHILL INDEX
   HX - HEAT INDEX
  VSB - VISIBILITY
$$



USA.gov is the U.S. government's official web portal to all federal, state and local government web resources and services.